AFR601 TFFR-TFFF

Flight info

Callsign AFR601
Flight time 0h 28m
Altitude 14000
Route KATIM2F KATIM DCT KAREX DCT FOF
Aircraft A320/M-SDE3FGHIRWY/LB1

Departure

Time 2026-04-25 19:35
Airport Maryse Condé International Airport (TFFR)

Arrival

Time 2026-04-25 20:03
Airport Martinique Aimé Césaire International Airport (TFFF)
Time Latitude Longitude Altitude Speed Heading
2026-04-25 19:15 16.26921 -61.52726 21 ft 0 kts 40°
2026-04-25 19:23 16.26914 -61.52733 22 ft 3 kts 39°
2026-04-25 19:23 16.26874 -61.52763 21 ft 3 kts 29°
2026-04-25 19:23 16.26856 -61.52772 24 ft 3 kts 15°
2026-04-25 19:24 16.26837 -61.52775 21 ft 3 kts 334°
2026-04-25 19:24 16.26830 -61.52771 24 ft 3 kts 285°
2026-04-25 19:24 16.26829 -61.52765 25 ft 0 kts 281°
2026-04-25 19:27 16.26831 -61.52776 23 ft 2 kts 281°
2026-04-25 19:27 16.26834 -61.52792 23 ft 2 kts 281°
2026-04-25 19:28 16.26837 -61.52805 21 ft 2 kts 281°
2026-04-25 19:28 16.26843 -61.52839 21 ft 8 kts 281°
2026-04-25 19:28 16.26848 -61.52895 21 ft 8 kts 259°
2026-04-25 19:28 16.26815 -61.52931 21 ft 7 kts 205°
2026-04-25 19:29 16.26753 -61.52946 21 ft 11 kts 191°
2026-04-25 19:29 16.26672 -61.52963 21 ft 13 kts 190°
2026-04-25 19:29 16.26568 -61.52982 20 ft 17 kts 190°
2026-04-25 19:29 16.26508 -61.53070 22 ft 18 kts 281°
2026-04-25 19:30 16.26511 -61.53083 21 ft 17 kts 282°
2026-04-25 19:30 16.26523 -61.53149 20 ft 16 kts 281°
2026-04-25 19:31 16.26544 -61.53258 19 ft 15 kts 281°
2026-04-25 19:31 16.26567 -61.53387 20 ft 20 kts 281°
2026-04-25 19:31 16.26591 -61.53518 25 ft 17 kts 281°
2026-04-25 19:31 16.26614 -61.53631 23 ft 16 kts 281°
2026-04-25 19:32 16.26634 -61.53744 21 ft 17 kts 280°
2026-04-25 19:32 16.26656 -61.53869 19 ft 18 kts 280°
2026-04-25 19:32 16.26679 -61.53991 19 ft 17 kts 282°
2026-04-25 19:32 16.26694 -61.54069 19 ft 17 kts 281°
2026-04-25 19:33 16.26726 -61.54231 15 ft 17 kts 281°
2026-04-25 19:33 16.26734 -61.54330 14 ft 13 kts 259°
2026-04-25 19:33 16.26709 -61.54397 13 ft 5 kts 265°
2026-04-25 19:33 16.26727 -61.54415 15 ft 3 kts 346°
2026-04-25 19:34 16.26750 -61.54382 14 ft 6 kts 86°
2026-04-25 19:34 16.26748 -61.54368 15 ft 0 kts 97°
2026-04-25 19:34 16.26748 -61.54367 15 ft 2 kts 97°
2026-04-25 19:34 16.26709 -61.54148 17 ft 71 kts 102°
2026-04-25 19:35 16.26568 -61.53395 20 ft 138 kts 101°
2026-04-25 19:35 16.26371 -61.52266 370 ft 164 kts 103°
2026-04-25 19:35 16.26151 -61.51094 1182 ft 166 kts 103°
2026-04-25 19:35 16.25894 -61.49844 1622 ft 188 kts 103°
2026-04-25 19:36 16.25600 -61.48413 2047 ft 217 kts 102°
2026-04-25 19:36 16.25284 -61.46779 2532 ft 242 kts 103°
2026-04-25 19:36 16.24950 -61.44992 3323 ft 257 kts 102°
2026-04-25 19:36 16.24733 -61.43761 4038 ft 261 kts 103°
2026-04-25 19:37 16.24703 -61.43595 4127 ft 261 kts 102°
2026-04-25 19:38 16.24087 -61.41812 5102 ft 266 kts 128°
2026-04-25 19:38 16.23826 -61.41474 5307 ft 267 kts 136°
2026-04-25 19:40 16.22753 -61.40686 5979 ft 267 kts 160°
2026-04-25 19:40 16.20913 -61.40448 6895 ft 271 kts 185°
2026-04-25 19:40 16.20334 -61.40509 7188 ft 272 kts 188°
2026-04-25 19:41 16.19983 -61.40559 7350 ft 273 kts 189°
2026-04-25 19:41 16.18091 -61.40857 8309 ft 276 kts 188°
2026-04-25 19:41 16.16170 -61.41080 9288 ft 279 kts 186°
2026-04-25 19:41 16.14878 -61.41180 9913 ft 282 kts 185°
2026-04-25 19:42 16.12147 -61.41294 10555 ft 309 kts 183°
2026-04-25 19:42 16.09975 -61.41324 11119 ft 322 kts 182°
2026-04-25 19:42 16.07712 -61.41326 11869 ft 328 kts 181°
2026-04-25 19:42 16.05404 -61.41317 12655 ft 334 kts 181°
2026-04-25 19:43 16.03075 -61.41305 13480 ft 331 kts 181°
2026-04-25 19:43 16.00736 -61.41294 13844 ft 341 kts 181°
2026-04-25 19:43 15.98339 -61.41288 13928 ft 352 kts 181°
2026-04-25 19:43 15.95830 -61.41269 13950 ft 378 kts 180°
2026-04-25 19:44 15.93327 -61.41238 13949 ft 397 kts 180°
2026-04-25 19:44 15.90538 -61.41197 13948 ft 403 kts 180°
2026-04-25 19:44 15.87751 -61.41155 13949 ft 405 kts 180°
2026-04-25 19:44 15.84933 -61.41112 13951 ft 405 kts 180°
2026-04-25 19:45 15.82110 -61.41072 13956 ft 406 kts 180°
2026-04-25 19:45 15.79287 -61.41036 13957 ft 405 kts 180°
2026-04-25 19:45 15.76467 -61.41004 13959 ft 406 kts 180°
2026-04-25 19:45 15.73643 -61.40973 13962 ft 406 kts 180°
2026-04-25 19:46 15.70823 -61.40941 13965 ft 405 kts 180°
2026-04-25 19:46 15.67999 -61.40907 13966 ft 405 kts 180°
2026-04-25 19:46 15.65182 -61.40871 13971 ft 405 kts 180°
2026-04-25 19:46 15.62359 -61.40835 13975 ft 405 kts 180°
2026-04-25 19:47 15.59536 -61.40801 13979 ft 405 kts 180°
2026-04-25 19:47 15.56718 -61.40766 13980 ft 405 kts 180°
2026-04-25 19:47 15.53895 -61.40731 13981 ft 405 kts 180°
2026-04-25 19:47 15.51071 -61.40695 13980 ft 405 kts 180°
2026-04-25 19:48 15.48250 -61.40656 13977 ft 405 kts 180°
2026-04-25 19:48 15.45463 -61.40619 13927 ft 405 kts 180°
2026-04-25 19:48 15.42642 -61.40583 13922 ft 405 kts 180°
2026-04-25 19:48 15.39824 -61.40533 13920 ft 405 kts 178°
2026-04-25 19:49 15.37027 -61.40116 13923 ft 407 kts 172°
2026-04-25 19:49 15.36085 -61.39948 13924 ft 407 kts 172°
2026-04-25 19:49 15.31444 -61.39098 13926 ft 407 kts 171°
2026-04-25 19:49 15.28653 -61.38578 13927 ft 407 kts 171°
2026-04-25 19:50 15.23082 -61.37546 13930 ft 407 kts 171°
2026-04-25 19:50 15.20287 -61.37031 13935 ft 407 kts 171°
2026-04-25 19:50 15.17499 -61.36517 13938 ft 407 kts 171°
2026-04-25 19:51 15.14708 -61.36004 13940 ft 407 kts 171°
2026-04-25 19:51 15.11918 -61.35492 13930 ft 407 kts 172°
2026-04-25 19:51 15.09166 -61.34988 13375 ft 404 kts 171°
2026-04-25 19:51 15.06419 -61.34486 12880 ft 395 kts 171°
2026-04-25 19:52 15.03788 -61.34002 12208 ft 375 kts 171°
2026-04-25 19:52 15.01261 -61.33535 11499 ft 357 kts 171°
2026-04-25 19:52 14.98884 -61.33099 10955 ft 339 kts 171°
2026-04-25 19:52 14.96592 -61.32682 10644 ft 323 kts 171°
2026-04-25 19:53 14.94463 -61.32293 10485 ft 300 kts 171°
2026-04-25 19:53 14.92445 -61.31924 10065 ft 290 kts 171°
2026-04-25 19:53 14.90468 -61.31563 9891 ft 287 kts 171°
2026-04-25 19:53 14.88530 -61.31209 9775 ft 286 kts 171°
2026-04-25 19:54 14.86568 -61.30851 9655 ft 286 kts 171°
2026-04-25 19:54 14.84610 -61.30493 9527 ft 285 kts 171°
2026-04-25 19:54 14.82684 -61.30008 9283 ft 286 kts 163°
2026-04-25 19:54 14.82044 -61.29792 9110 ft 287 kts 163°
2026-04-25 19:55 14.78950 -61.28720 8199 ft 275 kts 162°
2026-04-25 19:55 14.77164 -61.28094 7671 ft 267 kts 162°
2026-04-25 19:55 14.75431 -61.27487 7159 ft 260 kts 162°
2026-04-25 19:55 14.73742 -61.26896 6661 ft 253 kts 162°
2026-04-25 19:56 14.72099 -61.26322 6166 ft 246 kts 162°
2026-04-25 19:56 14.70499 -61.25766 5674 ft 239 kts 162°
2026-04-25 19:56 14.68948 -61.25227 5211 ft 232 kts 161°
2026-04-25 19:56 14.67460 -61.24709 4772 ft 226 kts 161°
2026-04-25 19:57 14.65985 -61.24197 4319 ft 221 kts 161°
2026-04-25 19:57 14.64592 -61.23716 4215 ft 202 kts 161°
2026-04-25 19:57 14.63295 -61.23267 4174 ft 191 kts 161°
2026-04-25 19:57 14.62056 -61.22838 4104 ft 186 kts 161°
2026-04-25 19:58 14.60824 -61.22412 4031 ft 187 kts 161°
2026-04-25 19:58 14.59587 -61.21982 3947 ft 187 kts 160°
2026-04-25 19:58 14.58374 -61.21562 3868 ft 187 kts 160°
2026-04-25 19:58 14.57128 -61.21125 3784 ft 186 kts 156°
2026-04-25 19:59 14.56143 -61.20313 3680 ft 185 kts 121°
2026-04-25 19:59 14.55882 -61.19032 3299 ft 193 kts 82°
2026-04-25 19:59 14.56155 -61.17659 2980 ft 196 kts 84°
2026-04-25 19:59 14.56376 -61.16260 2708 ft 198 kts 83°
2026-04-25 20:00 14.56607 -61.14875 2449 ft 193 kts 83°
2026-04-25 20:00 14.56685 -61.14417 2360 ft 190 kts 82°
2026-04-25 20:00 14.57062 -61.12217 1993 ft 186 kts 83°
2026-04-25 20:00 14.57283 -61.10931 1731 ft 176 kts 82°
2026-04-25 20:01 14.57676 -61.08652 1302 ft 147 kts 82°
2026-04-25 20:01 14.57848 -61.07654 1129 ft 136 kts 83°
2026-04-25 20:01 14.58007 -61.06729 968 ft 130 kts 84°
2026-04-25 20:02 14.58165 -61.05824 777 ft 127 kts 84°
2026-04-25 20:02 14.58342 -61.04887 658 ft 136 kts 82°
2026-04-25 20:02 14.58505 -61.03935 478 ft 135 kts 85°
2026-04-25 20:02 14.58666 -61.02989 304 ft 131 kts 84°
2026-04-25 20:03 14.58815 -61.02064 112 ft 131 kts 87°
2026-04-25 20:03 14.58963 -61.01168 27 ft 112 kts 80°
2026-04-25 20:03 14.59068 -61.00539 14 ft 64 kts 80°
2026-04-25 20:03 14.59116 -61.00261 15 ft 15 kts 79°
2026-04-25 20:04 14.59136 -61.00157 17 ft 17 kts 79°
2026-04-25 20:04 14.59152 -61.00059 18 ft 11 kts 79°
2026-04-25 20:04 14.59198 -61.00021 18 ft 7 kts 356°
2026-04-25 20:04 14.59241 -61.00031 19 ft 6 kts 347°
2026-04-25 20:05 14.59273 -61.00038 20 ft 0 kts 347°
2026-04-25 20:05 14.59287 -61.00042 18 ft 8 kts 347°
2026-04-25 20:06 14.59338 -61.00031 20 ft 8 kts 43°
2026-04-25 20:06 14.59364 -60.99989 18 ft 6 kts 58°
2026-04-25 20:06 14.59396 -60.99973 18 ft 6 kts
2026-04-25 20:06 14.59434 -60.99971 17 ft 1 kts
2026-04-25 20:07 14.59439 -60.99971 20 ft 0 kts
2026-04-25 20:07 14.59446 -60.99970 19 ft 0 kts
2026-04-25 20:09 16.26675 -61.53975 19 ft 18 kts 282°
2026-04-25 20:09 16.26697 -61.54084 18 ft 18 kts 281°
2026-04-25 20:09 16.26718 -61.54191 15 ft 19 kts 282°
2026-04-25 20:10 16.26735 -61.54287 16 ft 15 kts 277°
2026-04-25 20:10 16.26722 -61.54213 17 ft 18 kts 282°
2026-04-25 20:10 16.26725 -61.54415 15 ft 11 kts 340°
2026-04-25 20:10 16.26733 -61.54415 14 ft 0 kts 359°
2026-04-25 20:20 16.26669 -61.53944 19 ft 18 kts 281°
2026-04-25 20:20 16.26692 -61.54058 18 ft 18 kts 281°
2026-04-25 20:21 16.26714 -61.54169 16 ft 19 kts 281°
2026-04-25 20:21 16.26734 -61.54414 14 ft 7 kts
2026-04-25 20:21 16.26748 -61.54368 16 ft 1 kts 97°
2026-04-25 20:22 16.26730 -61.54257 15 ft 50 kts 101°
2026-04-25 20:22 16.26656 -61.53864 19 ft 102 kts 101°
2026-04-25 20:22 16.26489 -61.52981 27 ft 0 kts 103°